This demonstration page uses our WeatherBlox Daily Observations layout. Learn more.

Left ArrowRight Arrow

39.51506, -84.39828

Hourly Observations for March 3, 2017

Temp ( °F °C ) Dew Point ( °F °C ) Humidity (%) Winds ( mph kmh ) Pressure ( in mb ) Visibility ( mi km ) Precip ( " mm )
12:15 am 00:15 Clear 33 0.8 18 -7.7 53 53 WNW 5 7 30.39 1029 10 16 0.00 0.00
12:35 am 00:35 Clear 32 0 17 -8.5 53 53 WNW 3 6 30.39 1029 10 16 0.00 0.00
12:55 am 00:55 Clear 32 -0.1 17 -8.1 55 55 W 3 6 30.39 1029 10 16 0.00 0.00
1:15 am 01:15 Clear 31 -0.3 18 -7.9 57 57 Calm 30.42 1030 10 16 0.00 0.00
1:35 am 01:35 Mostly Cloudy 31 -0.5 19 -7.2 61 61 W 3 6 30.42 1030 10 16 0.00 0.00
1:55 am 01:55 Mostly Cloudy 32 0 20 -6.7 61 61 W 3 6 30.42 1030 10 16 0.00 0.00
2:15 am 02:15 Clear 29 -1.4 18 -7.8 62 62 WSW 5 7 30.42 1030 10 16 0.00 0.00
2:35 am 02:35 Clear 29 -1.5 19 -7.3 65 65 WSW 6 9 30.42 1030 10 16 0.00 0.00
2:55 am 02:55 Partly Cloudy 29 -1.5 20 -6.8 68 68 WSW 5 7 30.42 1030 10 16 0.00 0.00
3:15 am 03:15 Mostly Cloudy 29 -1.5 19 -7 67 67 WSW 5 7 30.42 1030 10 16 0.00 0.00
3:35 am 03:35 Cloudy 31 -0.8 20 -6.7 65 65 WSW 5 7 30.42 1030 10 16 0.00 0.00
3:55 am 03:55 Cloudy 32 -0.1 20 -6.5 62 62 WSW 5 7 30.42 1030 10 16 0.00 0.00
4:15 am 04:15 Cloudy 32 0 21 -6.3 63 63 WSW 5 7 30.42 1030 10 16 0.00 0.00
4:35 am 04:35 Cloudy 32 0 20 -6.7 61 61 W 5 7 30.42 1030 10 16 0.00 0.00
4:55 am 04:55 Cloudy 32 0 19 -7 60 60 WSW 6 9 30.42 1030 10 16 0.00 0.00
5:15 am 05:15 Cloudy 32 0 20 -6.9 60 60 W 6 9 30.45 1031 10 16 0.00 0.00
5:35 am 05:35 Cloudy 32 0 18 -7.9 56 56 W 8 13 30.45 1031 10 16 0.00 0.00
5:55 am 05:55 Partly Cloudy 32 0 17 -8.1 55 55 W 9 15 30.45 1031 10 16 0.00 0.00
6:15 am 06:15 Partly Cloudy 31 -0.5 16 -8.8 54 54 W 7 11 30.45 1031 10 16 0.00 0.00
6:35 am 06:35 Mostly Cloudy 30 -1.3 16 -9.1 56 56 W 7 11 30.48 1032 10 16 0.00 0.00
6:55 am 06:55 Cloudy 30 -1.2 15 -9.2 55 55 W 6 9 30.48 1032 10 16 0.00 0.00
7:15 am 07:15 Cloudy 32 0 17 -8.4 54 54 WNW 7 11 30.48 1032 10 16 0.00 0.00
7:35 am 07:35 Cloudy with Light Wintry Mix 32 0 16 -8.9 52 52 NW 14 22 30.50 1033 10 16 0.00 0.00
7:55 am 07:55 Cloudy 31 -0.3 11 -11.4 43 43 WNW 13 20 30.53 1034 10 16 0.00 0.00
8:15 am 08:15 Cloudy 31 -0.7 11 -11.4 45 45 NW 10 17 30.53 1034 10 16 0.00 0.00
8:35 am 08:35 Mostly Cloudy 32 0 12 -10.9 44 44 NW 9 15 30.53 1034 10 16 0.00 0.00
8:55 am 08:55 Partly Cloudy 32 0 12 -11.3 43 43 NW 14 22 30.56 1035 10 16 0.00 0.00
9:15 am 09:15 Partly Cloudy 33 0.6 12 -11 42 42 NW 15 24 30.56 1035 10 16 0.00 0.00
9:35 am 09:35 Sunny 34 1.2 10 -12.2 36 36 NNW 13 20 30.56 1035 10 16 0.00 0.00
9:55 am 09:55 Sunny 34 1.2 9 -13 34 34 WNW 13 20 30.56 1035 10 16 0.00 0.00
10:15 am 10:15 Sunny 34 1.2 8 -13.5 33 33 NW 9 15 30.59 1036 10 16 0.00 0.00
10:35 am 10:35 Sunny 34 1.2 6 -14.6 30 30 WNW 15 24 30.59 1036 10 16 0.00 0.00
10:55 am 10:55 Partly Cloudy 34 1.2 6 -14.2 31 31 W 12 19 30.59 1036 10 16 0.00 0.00
11:15 am 11:15 Partly Cloudy 34 1.2 6 -14.3 31 31 W 13 20 30.59 1036 10 16 0.00 0.00
11:35 am 11:35 Partly Cloudy 34 1.2 5 -15.2 29 29 W 8 13 30.62 1037 10 16 0.00 0.00
11:55 am 11:55 Partly Cloudy 37 2.6 5 -15 26 26 W 10 17 30.62 1037 10 16 0.00 0.00
12:15 pm 12:15 Partly Cloudy 34 1.2 2 -16.6 25 25 W 13 20 30.62 1037 10 16 0.00 0.00
12:35 pm 12:35 Partly Cloudy 36 2.2 4 -15.5 26 26 W 8 13 30.62 1037 10 16 0.00 0.00
12:55 pm 12:55 Partly Cloudy 37 2.6 3 -16.2 24 24 W 9 15 30.62 1037 10 16 0.00 0.00
1:15 pm 13:15 Partly Cloudy 37 2.6 -1 -18.4 20 20 W 13 20 30.62 1037 10 16 0.00 0.00
1:35 pm 13:35 Mostly Cloudy 37 2.6 -3 -19.6 18 18 WNW 13 20 30.62 1037 10 16 0.00 0.00
1:55 pm 13:55 Partly Cloudy 37 2.6 -5 -20.4 17 17 WNW 15 24 30.62 1037 10 16 0.00 0.00
2:15 pm 14:15 Partly Cloudy 37 2.8 -3 -19.7 17 17 W 16 26 30.62 1037 10 16 0.00 0.00
2:35 pm 14:35 Partly Cloudy 37 2.7 -1 -18.5 19 19 W 13 20 30.62 1037 10 16 0.00 0.00
2:55 pm 14:55 Partly Cloudy 37 2.7 -3 -19.6 18 18 WNW 16 26 30.62 1037 10 16 0.00 0.00
3:15 pm 15:15 Partly Cloudy 37 2.6 -3 -19.5 18 18 WSW 18 30 30.62 1037 10 16 0.00 0.00
3:35 pm 15:35 Partly Cloudy 37 2.6 -3 -19.7 18 18 WNW 15 24 30.62 1037 10 16 0.00 0.00
3:55 pm 15:55 Sunny 37 2.6 -5 -20.5 16 16 W 12 19 30.62 1037 10 16 0.00 0.00
4:15 pm 16:15 Sunny 37 2.7 -3 -19.7 18 18 WNW 14 22 30.62 1037 10 16 0.00 0.00
4:35 pm 16:35 Sunny 37 2.6 -5 -20.3 17 17 WNW 13 20 30.62 1037 10 16 0.00 0.00
4:55 pm 16:55 Sunny 37 2.6 -5 -20.8 16 16 W 9 15 30.62 1037 10 16 0.00 0.00
5:15 pm 17:15 Sunny 37 2.6 -3 -19.4 18 18 W 13 20 30.62 1037 10 16 0.00 0.00
5:35 pm 17:35 Sunny 37 2.6 -4 -19.8 17 17 WNW 10 17 30.62 1037 10 16 0.00 0.00
5:55 pm 17:55 Sunny 36 2 -3 -19.7 18 18 W 8 13 30.62 1037 10 16 0.00 0.00
6:15 pm 18:15 Sunny 34 1.2 0 -18 23 23 W 6 9 30.62 1037 10 16 0.00 0.00
6:35 pm 18:35 Clear 34 1.2 2 -16.4 26 26 W 8 13 30.62 1037 10 16 0.00 0.00
6:55 pm 18:55 Clear 34 1.2 4 -15.3 28 28 WNW 5 7 30.62 1037 10 16 0.00 0.00
7:15 pm 19:15 Clear 32 0 3 -15.9 29 29 WNW 3 6 30.62 1037 10 16 0.00 0.00
7:35 pm 19:35 Clear 34 1.2 4 -15.8 27 27 Calm 30.62 1037 10 16 0.00 0.00
7:55 pm 19:55 Clear 32 0 9 -12.9 38 38 Calm 30.62 1037 10 16 0.00 0.00
8:15 pm 20:15 Clear 30 -0.9 10 -12.2 42 42 Calm 30.62 1037 10 16 0.00 0.00
8:35 pm 20:35 Clear 29 -1.5 11 -11.7 46 46 Calm 30.65 1038 10 16 0.00 0.00
8:55 pm 20:55 Clear 29 -1.5 14 -9.9 53 53 Calm 30.62 1037 10 16 0.00 0.00
9:15 pm 21:15 Clear 29 -1.5 17 -8.6 59 59 Calm 30.62 1037 10 16 0.00 0.00
9:35 pm 21:35 Clear 29 -1.5 16 -9.1 57 57 Calm 30.62 1037 10 16 0.00 0.00
9:55 pm 21:55 Clear 29 -1.5 16 -8.9 57 57 Calm 30.65 1038 10 16 0.00 0.00
10:15 pm 22:15 Clear 29 -1.5 17 -8.6 59 59 Calm 30.65 1038 10 16 0.00 0.00
10:35 pm 22:35 Clear 29 -1.5 15 -9.5 55 55 N 3 6 30.65 1038 10 16 0.00 0.00
10:55 pm 22:55 Clear 29 -1.8 15 -9.4 57 57 Calm 30.68 1039 10 16 0.00 0.00
11:15 pm 23:15 Clear 29 -1.5 17 -8.1 61 61 N 3 6 30.65 1038 10 16 0.00 0.00
11:35 pm 23:35 Clear 28 -2 18 -7.9 64 64 N 3 6 30.68 1039 10 16 0.00 0.00
11:55 pm 23:55 Clear 29 -1.6 18 -7.9 63 63 Calm 30.65 1038 10 16 0.00 0.00

Powered by AerisWeather